Notices

What's New in latest Release from April 7th, 2021:

- Updated Glossary, including Speed of Maximum Gust, and Total Hourly Precipitation

- Updated national and regional climate services offices contacts and prices information

- Addition of station inventory lists for 1981-2010, 1971-2000, and 1961-1990 Normals.

If you haven't already, please take our survey and provide feedback about our website: https://eccc.sondage-survey.ca/f/LanguageSelection.aspx?s=442ca660-fcf1-47c0-95a9-59707d6fd709

Hourly Data Report for November 20, 2016

CARBERRY CS
MANITOBA

49°54'20.900" N
99°21'26.800" W
383.50 m
5010547
71170
WZE

Download Data

Hourly Data (November 2016)
Hourly Data Report for November 20, 2016
TIME
LST
Temp Definition
°C
Dew Point Definition
°C
Rel Hum Definition
%
Precip. Amount Definition
mm

Wind Dir Definition
10's deg

Wind Spd Definition
km/h
Visibility Definition
km
Stn Press Definition
kPa
Hmdx Definition


Wind Chill Definition


Weather Definition


00:00 -4.2 -9.7 65 0.0 12 9   98.02   -8 LegendNANA
01:00 -4.1 -9.5 66 0.0 11 10   97.98   -8 LegendNANA
02:00 -3.7 -9.4 65 0.0 11 12   97.92   -8 LegendNANA
03:00 -3.8 -9.3 65 0.0 10 12   97.89   -8 LegendNANA
04:00 -3.7 -9.5 64 0.0 12 14   97.82   -9 LegendNANA
05:00 -3.5 -9.4 64 0.0 11 12   97.80   -8 LegendNANA
06:00 -3.3 -9.3 63 0.0 10 11   97.78   -8 LegendNANA
07:00 -3.0 -9.5 61 0.0 10 14   97.74   -8 LegendNANA
08:00 -3.0 -9.3 62 0.0 11 14   97.74   -8 LegendNANA
09:00 -2.6 -9.2 61 0.0 12 21   97.70   -9 LegendNANA
10:00 -2.0 -9.3 58 0.0 13 23   97.67   -8 LegendNANA
11:00 -1.4 -9.5 54 0.0 13 27   97.59   -8 LegendNANA
12:00 -0.5 -10.0 48 0.0 13 25   97.51   -7 LegendNANA
13:00 1.9 -9.7 42 0.0 13 22   97.44     LegendNANA
14:00 1.7 -10.4 40 0.0 15 25   97.39     LegendNANA
15:00 1.1 -9.3 46 0.0 15 27   97.36     LegendNANA
16:00 0.6 -8.6 50 0.0 15 18   97.39     LegendNANA
17:00 0.1 -8.6 52 0.0 14 19   97.36     LegendNANA
18:00 -0.3 -8.5 54 0.0 13 18   97.35   -5 LegendNANA
19:00 -1.0 -8.8 55 0.0 14 21   97.36   -7 LegendNANA
20:00 -2.7 -9.0 62 0.0 14 15   97.34   -8 LegendNANA
21:00 -2.7 -8.9 63 0.0 15 18   97.34   -8 LegendNANA
22:00 -3.9 -8.9 68 0.0 14 14   97.34   -9 LegendNANA
23:00 -4.3 -8.8 71 0.0 14 16   97.27   -10 LegendNANA

Notes on Data Quality.

Legend

  • E = Estimated
  • M = Missing
  • NA = Not Available*
  • [empty] = Indicates an unobserved value
Date modified: